CZ-2D DEB, 44611

Orbit data source: Space-Track

CZ-2D DEB, 44611 is space debris in SSO originally from a launch on Mon, 09 Oct 2017 UTC launched from the Jiuquan Satellite Launch Center, China (JSC). Debris objects in space refer to the collection of defunct objects orbiting the Earth. Examples of debris include non-operational satellites, rocket bodies, and fragments generated from explosions, collisions, or faulty payload assembly.

Loading next visibility...
Identifier
44611, 2017-060D
Orbit
SSO
Country
Flag of CNCN / PRC
Related business
Manufacturer
Unknown
Mission
Spacecraft
Bus & Motor
Unknown
Mass
Unknown
Launch date (UTC)
2017-10-09 (8 years ago)
Launch vehicle
Unknown
Launch site
Jiuquan Satellite Launch Center, China (JSC)
Object type
Payload
Rocket body
Debris
Shape & HBR
Unknown shape, 0.1 m
Radar Cross Section
Small (<0.1 m²)

Expand to show TLE details & history
Last TLE update: 1 day ago

TLE from 1 day ago
0 CZ-2D DEB
1 44611U 17060D   26036.38672853  .00009916  00000-0  92081-3 0  9997
2 44611  98.2093 186.9641 0028346 189.3771 170.6923 14.94306495447450
Epoch: 2026-02-05T09:16Z
TLE epoch observation values (Epoch: 2026-02-05T09:16:53.344Z)
Latitude
0.00002°
Longitude
-87.79786°
Altitude
607.04 km
Speed
7.545 km/s
True Right ascension
12h 27m 51s
True Declination
0° 00' 00"
Sunlit
Object was in full shadow at epoch
Visualization orbit readout
Latitude
Unknown
Longitude
Unknown
Altitude
Unknown
Speed
Unknown
Apparent Right ascension
Unknown
Apparent Declination
Unknown
Sunlit
N/A
Visualization observer readout
Local Sidereal Time
19:16:58
Azimuth
Unknown
Elevation
Unknown
Doppler factor
Unknown
Orbital elements
Apogee altitude
601.29 km
Perigee altitude
561.834 km
Semi-major axis
6,959.699 km
Eccentricity
0.00283
Inclination
98.2093°
RAAN
186.9641°
Arg. of periapsis
189.3771°
True anomaly
170.74465°
Mean anomaly
170.6923°
Eccentric anomaly
170.71849°
Mean motion
3.73816 °/min
Orbital period
96.3 mins
BSTAR
0.00092081
Loading maneuver chart data...
Computing Atmospheric mass density...
Loading historical data...
Loading historical data...
Loading historical data...
Loading historical data...
Loading historical data...
Loading historical data...
Loading historical data...
Other satellites on launch #60 in the year 2017 (2017-10-09 UTC)

Documentation

Showing up to 5 results
|